YAMAL 402

Last updated on Mon Sep 15 2025 00:02:47 GMT+0000 (Coordinated Universal Time)

1 39022U 12070A 25257.23916336 .00000074 00000+0 00000+0 0 9999 2 39022 0.5512 88.0943 0003645 91.8176 314.5550 1.00270359 46632
UTC large
Height (km)
Speed (km/s)
/
Latitude / Longitude
Inclination (degrees)
Orbital Period (minutes)
Azimuth
Elevation
Range (km)
Doppler Factor

Next 0 passes for location: London (51.5072 / 0.1276)

Sorry there are no passes over London.